Satellite-Ground Cal/Val Site Overpasses Predictions

Prediction of Satellite NPP Overpassing Cal/Val Site: Antarctic Dome C

Ground Cal/Val Site Location: Latitude: -75.10, Longitude: 123.35; Satellite-Ground Site NADIR distance within 100 km.

Table of predicted overpasses for the next 14.0 days since TLE Epoch: 9/18/2016
Interval Starting Time Ending Time Minimum Distance Time Minimum Distance (km)
1 09/18/2016 14:48:58 09/18/2016 14:49:27 09/18/2016 14:49:12 17.91
2 09/20/2016 07:31:50 09/20/2016 07:32:19 09/20/2016 07:32:05 3.10
3 09/23/2016 14:55:20 09/23/2016 14:55:49 09/23/2016 14:55:34 19.44
4 09/24/2016 14:36:40 09/24/2016 14:36:54 09/24/2016 14:36:47 87.54
5 09/25/2016 07:38:12 09/25/2016 07:38:39 09/25/2016 07:38:26 34.70
6 09/26/2016 07:19:28 09/26/2016 07:19:47 09/26/2016 07:19:37 75.44
7 09/28/2016 15:01:44 09/28/2016 15:02:08 09/28/2016 15:01:56 56.88
8 09/29/2016 14:42:55 09/29/2016 14:43:20 09/29/2016 14:43:07 52.19
9 09/30/2016 07:44:37 09/30/2016 07:44:57 09/30/2016 07:44:47 70.34
